Home > Time Zones > World Clock > Weather > India > Pali > Past weeks

Flag for India Weather past 2 weeks in Pali, Rajasthan, India

Now
90 °F

Scattered clouds.


Feels Like: 98 °F
Forecast: 80 / 93 °F
Wind: 8 mph from East

Location: Jaipur / Sanganer

Current Time: Jul 25, 2014 at 7:25:30 PM

Latest Report: Jul 25, 2014 at 6:00 PM


Visibility: 2 mi

Pressure: 29.56 "Hg

Humidity: 59%

Dew point: 73 °F

Location of PaliLocation

Historic Weather in Pali — Graph

°F

Pali temperature yesterday

Maximum temperature yesterday: 88 °F (at 3:00 PM)
Minimum temperature yesterday: 79 °F (at 5:00 AM)
Average temperature yesterday: 83 °F

Past Weeks' High & Low Weather Summary

 TemperatureHumidityPressure
High108 °F (Jul 11, 4:00 PM)100% (Jul 17, 3:00 AM)29.65 "Hg (Jul 17, 3:00 AM)
Low75 °F (Jul 21, 1:00 AM)19% (Jul 10, 5:00 PM)29.42 "Hg (Jul 15, 6:00 PM)
Average89 °F61%29.53 "Hg
* Reported Jul 10 5:00 PM — Jul 25 5:00 PM, Pali, Weather by CustomWeather, © 2014

Note: Actual official high and low records may vary slightly from our data, if they occured in-between our weather recording intervals... More about our weather records

Advertising

Pali weather history for previous 24 hours

 ConditionsComfort  
Time TempWeatherWind HumidityBarometerVisibility
5:00 PM
Jul 25
91 °FScattered clouds.12 mph56%29.56 "Hg2 mi
4:00 PM91 °FScattered clouds.7 mph52%29.56 "Hg2 mi
3:00 PM90 °FBroken clouds.8 mph59%29.59 "Hg2 mi
2:00 PM90 °FBroken clouds.7 mph59%29.62 "Hg2 mi
1:00 PM88 °FBroken clouds.7 mph62%29.62 "Hg2 mi
12:00 PM86 °FBroken clouds.8 mph66%29.62 "Hg2 mi
11:00 AM86 °FScattered clouds.8 mph66%29.65 "Hg2 mi
10:00 AM86 °FScattered clouds.9 mph66%29.65 "Hg2 mi
9:00 AM82 °FScattered clouds.10 mph74%29.62 "Hg2 mi
8:00 AM81 °FScattered clouds.9 mph79%29.62 "Hg2 mi
7:00 AM79 °FScattered clouds.8 mph84%29.59 "Hg2 mi
6:00 AM79 °FPartly cloudy.6 mph84%29.59 "Hg2 mi
5:00 AM79 °FPartly cloudy.5 mph84%29.59 "Hg2 mi
1:00 AM81 °FPartly cloudy.6 mph79%29.59 "Hg2 mi
12:00 AM79 °FPartly cloudy.6 mph89%29.59 "Hg2 mi
11:00 PM
Jul 24
81 °FPartly cloudy.6 mph84%29.59 "Hg2 mi
10:00 PM81 °FPartly cloudy.7 mph84%29.59 "Hg2 mi
9:00 PM81 °FPartly cloudy.8 mph84%29.56 "Hg2 mi
8:00 PM82 °FPartly cloudy.12 mph74%29.56 "Hg2 mi
7:00 PM82 °FBroken clouds.12 mph74%29.53 "Hg2 mi
Weather by CustomWeather, © 2014

See weather overviewHow to use our weather pages